Flag for Germany Weather past 2 weeks in Korschenbroich, North Rhine-Westphalia, Germany

Now
39 °F

Scattered showers. Passing clouds.


Feels Like: 32 °F
Forecast: 33 / 37 °F
Wind: 10 mph from Southwest

Location: Monchengladbach Airport

Current Time: Jan 29, 2015 at 3:20:54 PM

Latest Report: Jan 29, 2015 at 2:50 PM


Visibility: N/A

Pressure: 29.03 "Hg

Humidity: 87%

Dew point: 36 °F

Location of KorschenbroichLocation

Historic Weather in Korschenbroich — Graph

°F

Korschenbroich temperature yesterday

Maximum temperature yesterday: 45 °F (at 11:50 AM)
Minimum temperature yesterday: 37 °F (at 6:50 PM)
Average temperature yesterday: 42 °F

Past Weeks' High & Low Weather Summary

 TemperatureHumidityPressure
High52 °F (Jan 15, 1:20 PM)100% (Jan 17, 8:20 AM)30.42 "Hg (Jan 17, 8:20 AM)
Low28 °F (Jan 19, 8:20 AM)61% (Jan 17, 2:20 PM)29.06 "Hg (Jan 29, 2:20 PM)
Average38 °F84%29.94 "Hg
* Reported Jan 14 2:20 PM — Jan 29 2:20 PM, Korschenbroich, Weather by CustomWeather, © 2014

Note: Actual official high and low records may vary slightly from our data, if they occured in-between our weather recording intervals... More about our weather records

Advertising

Korschenbroich weather history for previous 24 hours

 ConditionsComfort  
Time TempWeatherWind HumidityBarometerVisibility
2:20 PM
Jan 29
39 °FThundershowers. Passing clouds.12 mph81%29.06 "HgN/A
1:50 PM41 °FScattered showers. Passing clouds.14 mph81%29.09 "HgN/A
1:20 PM43 °FScattered showers. Passing clouds.15 mph71%29.09 "HgN/A
12:50 PM41 °FLight rain. Passing clouds.16 mph70%29.12 "HgN/A
12:20 PM41 °FPassing clouds.14 mph76%29.15 "HgN/A
11:50 AM41 °FPassing clouds.13 mph76%29.18 "HgN/A
11:20 AM39 °FPassing clouds.16 mph75%29.21 "HgN/A
10:50 AM39 °FPassing clouds.12 mph75%29.21 "HgN/A
10:20 AM39 °FPassing clouds.13 mph75%29.24 "HgN/A
9:50 AM37 °FPassing clouds.14 mph81%29.24 "HgN/A
9:20 AM37 °FPassing clouds.17 mph81%29.27 "HgN/A
8:50 AM37 °FPassing clouds.15 mph81%29.27 "HgN/A
8:20 AM37 °FScattered clouds.15 mph81%29.27 "HgN/A
7:50 AM37 °FScattered clouds.15 mph81%29.30 "HgN/A
7:50 PM
Jan 28
37 °FPassing clouds.9 mph93%29.47 "HgN/A
7:20 PM37 °FPassing clouds.7 mph93%29.47 "HgN/A
6:50 PM37 °FLight rain. Passing clouds.16 mph93%29.47 "Hg4 mi
6:20 PM41 °FRain. Passing clouds.23 mph93%29.45 "Hg3 mi
5:50 PM45 °FRain. Passing clouds.22 mph87%29.39 "Hg3 mi
5:20 PM43 °FLight rain. Passing clouds.16 mph93%29.42 "Hg4 mi
4:50 PM43 °FLight rain. Fog.20 mph87%29.45 "Hg3 mi
4:20 PM43 °FPassing clouds.18 mph87%29.45 "HgN/A
3:50 PM43 °FLight rain. Passing clouds.15 mph87%29.50 "HgN/A
3:20 PM43 °FLight rain. Fog.20 mph81%29.50 "Hg2 mi
Weather by CustomWeather, © 2014

See weather overviewHow to use our weather pages